• In Netherlands
  • List of Countries
  • For 7 days
  • Water Temperature
  • Satellite Maps
  • Weather Map
  • Weather Widgets
  • user-avatar
    Login

    Hourly Weather Manama

    Today, 25 March, Saturday

    Time Temperature Precipitation Wind Pressure Humidity
    00:00 +23°C° 0 mm 7 mps 757 mmHg 81%
    01:00 +23°C° 0 mm 7 mps 756 mmHg 83%
    02:00 +23°C° 0 mm 7 mps 756 mmHg 84%
    03:00 +23°C° 0 mm 6 mps 755 mmHg 86%
    04:00 +23°C° 0.8 mm 6 mps 756 mmHg 87%
    05:00 +22°C° 0.8 mm 5 mps 756 mmHg 87%
    06:00 +22°C° 0.8 mm 4 mps 756 mmHg 88%
    07:00 +23°C° 0.4 mm 5 mps 756 mmHg 85%
    08:00 +24°C° 0.4 mm 6 mps 756 mmHg 82%
    09:00 +24°C° 0.4 mm 7 mps 757 mmHg 79%
    10:00 +26°C° 0.2 mm 7 mps 756 mmHg 76%
    11:00 +27°C° 0.2 mm 7 mps 756 mmHg 73%
    12:00 +27°C° 0.2 mm 6 mps 756 mmHg 70%
    13:00 +28°C° 0 mm 7 mps 755 mmHg 68%
    14:00 +28°C° 0 mm 7 mps 755 mmHg 67%
    15:00 +28°C° 0 mm 8 mps 754 mmHg 66%
    16:00 +28°C° 0.1 mm 7 mps 754 mmHg 67%
    17:00 +27°C° 0.1 mm 6 mps 755 mmHg 69%
    18:00 +27°C° 0.1 mm 5 mps 755 mmHg 70%
    19:00 +26°C° 0.6 mm 5 mps 755 mmHg 71%
    20:00 +26°C° 0.6 mm 5 mps 756 mmHg 73%
    21:00 +25°C° 0.6 mm 5 mps 756 mmHg 74%
    22:00 +25°C° 1.3 mm 5 mps 756 mmHg 79%
    23:00 +23°C° 1.3 mm 6 mps 757 mmHg 83%

    Tomorrow, 26 March, Sunday

    Time Temperature Precipitation Wind Pressure Humidity
    00:00 +22°C° 1.3 mm 6 mps 757 mmHg 87%
    01:00 +22°C° 0.1 mm 6 mps 757 mmHg 87%
    02:00 +22°C° 0.1 mm 5 mps 757 mmHg 87%
    03:00 +22°C° 0.1 mm 5 mps 757 mmHg 87%
    04:00 +22°C° 0 mm 5 mps 757 mmHg 87%
    05:00 +22°C° 0 mm 6 mps 758 mmHg 86%
    06:00 +22°C° 0 mm 6 mps 758 mmHg 86%
    07:00 +22°C° 0.1 mm 6 mps 758 mmHg 82%
    08:00 +23°C° 0.1 mm 6 mps 759 mmHg 77%
    09:00 +24°C° 0.1 mm 6 mps 759 mmHg 73%
    10:00 +24°C° 0.1 mm 6 mps 759 mmHg 69%
    11:00 +26°C° 0.1 mm 6 mps 759 mmHg 65%
    12:00 +26°C° 0.1 mm 7 mps 759 mmHg 61%
    13:00 +26°C° 0.1 mm 7 mps 759 mmHg 60%
    14:00 +26°C° 0.1 mm 7 mps 758 mmHg 59%
    15:00 +26°C° 0.1 mm 7 mps 758 mmHg 58%
    16:00 +24°C° 0.1 mm 7 mps 758 mmHg 60%
    17:00 +24°C° 0.1 mm 7 mps 759 mmHg 62%
    18:00 +23°C° 0.1 mm 7 mps 759 mmHg 64%
    19:00 +23°C° 0.2 mm 7 mps 760 mmHg 65%
    20:00 +23°C° 0.2 mm 6 mps 760 mmHg 66%
    21:00 +22°C° 0.2 mm 5 mps 761 mmHg 67%
    22:00 +22°C° 0 mm 6 mps 761 mmHg 66%
    23:00 +22°C° 0 mm 6 mps 761 mmHg 65%

    Day after tomorrow, 27 March, Monday

    Time Temperature Precipitation Wind Pressure Humidity
    00:00 +22°C° 0 mm 6 mps 760 mmHg 65%
    01:00 +22°C° 0 mm 6 mps 760 mmHg 63%
    02:00 +22°C° 0 mm 6 mps 760 mmHg 62%
    03:00 +22°C° 0 mm 5 mps 760 mmHg 60%
    04:00 +22°C° 0 mm 5 mps 760 mmHg 61%
    05:00 +22°C° 0 mm 5 mps 761 mmHg 62%
    06:00 +21°C° 0 mm 4 mps 762 mmHg 62%
    07:00 +23°C° 0 mm 4 mps 762 mmHg 56%
    08:00 +25°C° 0 mm 4 mps 762 mmHg 49%
    09:00 +26°C° 0 mm 4 mps 763 mmHg 42%
    10:00 +27°C° 0 mm 4 mps 762 mmHg 38%
    11:00 +27°C° 0 mm 4 mps 762 mmHg 35%
    12:00 +28°C° 0 mm 4 mps 762 mmHg 31%
    13:00 +28°C° 0 mm 4 mps 761 mmHg 31%
    14:00 +28°C° 0 mm 5 mps 761 mmHg 32%
    15:00 +28°C° 0 mm 5 mps 761 mmHg 32%
    16:00 +27°C° 0 mm 5 mps 761 mmHg 36%
    17:00 +26°C° 0 mm 5 mps 761 mmHg 40%
    18:00 +25°C° 0 mm 5 mps 761 mmHg 45%
    19:00 +25°C° 0 mm 5 mps 762 mmHg 48%
    20:00 +23°C° 0 mm 4 mps 762 mmHg 51%
    21:00 +23°C° 0 mm 4 mps 763 mmHg 54%
    22:00 +24°C° 0 mm 3 mps 762 mmHg 55%
    23:00 +23°C° 0 mm 2 mps 762 mmHg 56%

    28 March, Tuesday

    Time Temperature Precipitation Wind Pressure Humidity
    00:00 +23°C° 0 mm 1 mps 762 mmHg 58%
    01:00 +23°C° 0 mm 1 mps 762 mmHg 57%
    02:00 +23°C° 0 mm 2 mps 761 mmHg 56%
    03:00 +21°C° 0 mm 2 mps 761 mmHg 56%
    04:00 +21°C° 0 mm 2 mps 761 mmHg 55%
    05:00 +21°C° 0 mm 2 mps 762 mmHg 54%
    06:00 +21°C° 0 mm 2 mps 762 mmHg 53%
    07:00 +23°C° 0 mm 2 mps 762 mmHg 48%
    08:00 +24°C° 0 mm 2 mps 762 mmHg 44%
    09:00 +26°C° 0 mm 2 mps 763 mmHg 39%
    10:00 +26°C° 0 mm 2 mps 762 mmHg 37%
    11:00 +27°C° 0 mm 2 mps 762 mmHg 35%
    12:00 +27°C° 0 mm 1 mps 762 mmHg 33%
    13:00 +27°C° 0 mm 2 mps 761 mmHg 32%
    14:00 +28°C° 0 mm 2 mps 760 mmHg 31%
    15:00 +28°C° 0 mm 2 mps 760 mmHg 30%
    16:00 +27°C° 0 mm 2 mps 760 mmHg 32%
    17:00 +27°C° 0 mm 2 mps 760 mmHg 33%
    18:00 +26°C° 0 mm 2 mps 761 mmHg 35%
    19:00 +26°C° 0 mm 3 mps 761 mmHg 36%
    20:00 +26°C° 0 mm 3 mps 761 mmHg 37%
    21:00 +25°C° 0 mm 3 mps 762 mmHg 38%
    22:00 +25°C° 0 mm 3 mps 761 mmHg 39%
    23:00 +25°C° 0 mm 3 mps 761 mmHg 40%

    29 March, Wednesday

    Time Temperature Precipitation Wind Pressure Humidity
    00:00 +25°C° 0 mm 3 mps 760 mmHg 41%
    01:00 +25°C° 0 mm 3 mps 760 mmHg 42%
    02:00 +24°C° 0 mm 2 mps 760 mmHg 42%
    03:00 +24°C° 0 mm 2 mps 760 mmHg 43%
    04:00 +24°C° 0 mm 2 mps 760 mmHg 43%
    05:00 +24°C° 0 mm 2 mps 760 mmHg 43%
    06:00 +24°C° 0 mm 2 mps 760 mmHg 43%
    07:00 +25°C° 0 mm 2 mps 760 mmHg 40%
    08:00 +26°C° 0 mm 2 mps 761 mmHg 37%
    09:00 +27°C° 0 mm 2 mps 761 mmHg 34%
    10:00 +27°C° 0.1 mm 2 mps 761 mmHg 32%
    11:00 +28°C° 0.1 mm 2 mps 760 mmHg 31%
    12:00 +29°C° 0.1 mm 3 mps 760 mmHg 29%
    13:00 +29°C° 0 mm 3 mps 760 mmHg 29%
    14:00 +29°C° 0 mm 3 mps 759 mmHg 29%
    15:00 +29°C° 0 mm 3 mps 759 mmHg 29%
    16:00 +29°C° 0 mm 4 mps 759 mmHg 31%
    17:00 +28°C° 0 mm 4 mps 759 mmHg 33%
    18:00 +28°C° 0 mm 5 mps 759 mmHg 36%
    19:00 +27°C° 0 mm 5 mps 759 mmHg 38%
    20:00 +27°C° 0 mm 6 mps 759 mmHg 39%
    21:00 +27°C° 0 mm 6 mps 760 mmHg 41%
    22:00 +27°C° 0.1 mm 5 mps 759 mmHg 43%
    23:00 +27°C° 0.1 mm 5 mps 759 mmHg 45%

    30 March, Thursday

    Time Temperature Precipitation Wind Pressure Humidity
    00:00 +26°C° 0.1 mm 5 mps 759 mmHg 46%
    01:00 +26°C° 0 mm 4 mps 759 mmHg 47%
    02:00 +26°C° 0 mm 4 mps 759 mmHg 47%
    03:00 +26°C° 0 mm 4 mps 758 mmHg 48%
    04:00 +26°C° 0 mm 4 mps 759 mmHg 47%
    05:00 +26°C° 0 mm 4 mps 759 mmHg 47%
    06:00 +26°C° 0 mm 4 mps 759 mmHg 46%
    07:00 +27°C° 0 mm 4 mps 760 mmHg 43%
    08:00 +28°C° 0 mm 4 mps 760 mmHg 40%
    09:00 +29°C° 0 mm 4 mps 761 mmHg 37%
    10:00 +29°C° 0 mm 3 mps 760 mmHg 37%
    11:00 +29°C° 0 mm 3 mps 760 mmHg 37%
    12:00 +30°C° 0 mm 2 mps 760 mmHg 38%
    13:00 +29°C° 0 mm 3 mps 760 mmHg 38%
    14:00 +29°C° 0 mm 3 mps 759 mmHg 39%
    15:00 +29°C° 0 mm 4 mps 759 mmHg 40%
    16:00 +29°C° 0 mm 4 mps 759 mmHg 41%
    17:00 +29°C° 0 mm 4 mps 759 mmHg 42%
    18:00 +29°C° 0 mm 4 mps 759 mmHg 43%
    19:00 +29°C° 0 mm 5 mps 759 mmHg 44%
    20:00 +29°C° 0 mm 5 mps 759 mmHg 45%
    21:00 +29°C° 0 mm 5 mps 759 mmHg 46%
    22:00 +28°C° 0 mm 5 mps 759 mmHg 46%
    23:00 +28°C° 0 mm 5 mps 759 mmHg 47%
    Show more